NOAA 16 DEB, 41203

Orbit data source: Space-Track

NOAA 16 DEB, 41203 is space debris in SSO originally from a launch on Thu, 21 Sep 2000 UTC launched from the Air Force Western Test Range (AFWTR). Debris objects in space refer to the collection of defunct objects orbiting the Earth. Examples of debris include non-operational satellites, rocket bodies, and fragments generated from explosions, collisions, or faulty payload assembly.

Loading next visibility...
Identifier
41203, 2000-055DG
Orbit
SSO
Country
Flag of USUS
Related business
Manufacturer
Unknown
Mission
Spacecraft
Bus & Motor
Unknown
Mass
Unknown
Launch date (UTC)
2000-09-21 (26 years ago)
Launch vehicle
Unknown
Launch site
Air Force Western Test Range (AFWTR)
Object type
Payload
Rocket body
Debris
Shape & HBR
Unknown shape, 0.1 m
Radar Cross Section
Medium (>0.1 m² and <1 m²)

Expand to show TLE details & history
Last TLE update: 2 days ago

TLE from 2 days ago
0 NOAA 16 DEB
1 41203U 00055DG  26171.06411802  .00001930  00000-0  91878-3 0  9998
2 41203  98.6847 214.2185 0034579 118.5139 241.9527 14.20182812542216
Epoch: 2026-06-20T01:32Z
TLE epoch observation values (Epoch: 2026-06-20T01:32:19.796Z)
Latitude
-0°
Longitude
-77.14809°
Altitude
839.431 km
Speed
7.427 km/s
True Right ascension
14h 16m 52s
True Declination
0° 00' 00"
Sunlit
Object was in full shadow at epoch
Visualization orbit readout
Latitude
Unknown
Longitude
Unknown
Altitude
Unknown
Speed
Unknown
Apparent Right ascension
Unknown
Apparent Declination
Unknown
Sunlit
N/A
Visualization observer readout
Local Sidereal Time
21:35:25
Azimuth
Unknown
Elevation
Unknown
Doppler factor
Unknown
Orbital elements
Apogee altitude
846.789 km
Perigee altitude
796.995 km
Semi-major axis
7,200.029 km
Eccentricity
0.00346
Inclination
98.6847°
RAAN
214.2185°
Arg. of periapsis
118.5139°
True anomaly
241.6037°
Mean anomaly
241.9527°
Eccentric anomaly
241.77813°
Mean motion
3.55256 °/min
Orbital period
101.34 mins
BSTAR
0.00091878
Loading maneuver chart data...
Computing Atmospheric mass density...
Loading historical data...
Loading historical data...
Loading historical data...
Loading historical data...
Loading historical data...
Loading historical data...
Loading historical data...

Documentation

Showing up to 5 results
|